Showing default

HORYU 4, 41340

Orbit data source: Space-Track

HORYU 4, 41340 is a payload satellite owned by Kyutech (JP) in LEO that was launched on Wed, 17 Feb 2016 UTC via an H-IIA 202 launch vehicle from the Tanegashima Space Center (TNSTA). Payload-class satellites include a variety of spacecraft equipped with specific instruments for various scientific and technological missions. These include communications satellites like Starlink; space stations such as the ISS; scientific satellites like the Hubble; Earth observation satellites from companies like Planet Labs, Umbra, and HawkEye 360; GPS; miniature CubeSats for education and research; and military/defense satellites.

Not visible in the next 10 days
Identifier
41340, 2016-012D
Orbit
LEO
Country
Flag of JPJP / JPN
Related business
Manufacturer
Kyutech
Mission
Operational Amateur Technology
Bus & Motor
HORYU, Unknown motor
Mass
10 kg wet, 10 kg dry
Launch date (UTC)
2016-02-17 (10 years ago)
Launch vehicle
H-IIA 202
Launch site
Tanegashima Space Center (TNSTA)
Object type
Payload
Rocket body
Debris
Shape & HBR
Box, 0.2 m
Radar Cross Section
0.290 m², Medium (>0.1 m² and < 1m²)

Expand to show TLE details & history
Last TLE update: 2 days ago

TLE from 2 days ago
0 HORYU 4
1 41340U 16012D   26171.37382522  .00528215  11166-3  10448-2 0  9991
2 41340  30.9842  55.5784 0006572 292.5150  67.4817 15.98761555571321
Epoch: 2026-06-20T08:58Z
TLE epoch observation values (Epoch: 2026-06-20T08:58:18.499Z)
Latitude
0.00002°
Longitude
12.41199°
Altitude
274.632 km
Speed
7.746 km/s
True Right ascension
03h 42m 18s
True Declination
0° 00' 00"
Sunlit
Object was in daylight at epoch
Visualization orbit readout
Latitude
Unknown
Longitude
Unknown
Altitude
Unknown
Speed
Unknown
Apparent Right ascension
Unknown
Apparent Declination
Unknown
Sunlit
N/A
Visualization observer readout
Local Sidereal Time
23:18:52
Azimuth
Unknown
Elevation
Unknown
Doppler factor
Unknown
Orbital elements
Apogee altitude
286.223 km
Perigee altitude
277.469 km
Semi-major axis
6,659.983 km
Eccentricity
0.00066
Inclination
30.9842°
RAAN
55.5784°
Arg. of periapsis
292.515°
True anomaly
67.55129°
Mean anomaly
67.4817°
Eccentric anomaly
67.51649°
Mean motion
3.99331 °/min
Orbital period
90.15 mins
BSTAR
0.0010448
Loading maneuver chart data...
Computing Atmospheric mass density...
Loading historical data...
Loading historical data...
Loading historical data...
Loading historical data...
Loading historical data...
Loading historical data...
Loading historical data...

Documentation

Showing up to 5 results
|